MDT,Max TemperatureF,Mean TemperatureF,Min TemperatureF,Max Dew PointF,MeanDew PointF,Min DewpointF,Max Humidity, Mean Humidity, Min Humidity, Max Sea Level PressureIn, Mean Sea Level PressureIn, Min Sea Level PressureIn, Max VisibilityMiles, Mean VisibilityMiles, Min VisibilityMiles, Max Wind SpeedMPH, Mean Wind SpeedMPH, Max Gust SpeedMPH,PrecipitationIn, CloudCover, Events, WindDirDegrees
2013-9-1,92,69,45,44,41,34,80,47,13,30.10,30.01,29.93,10,10,10,12,2,16,0.00,0,,132
2013-9-2,94,71,48,53,45,41,71,44,17,29.97,29.88,29.80,10,10,10,20,4,26,T,2,Rain,246
2013-9-3,92,76,59,55,52,49,72,49,25,29.97,29.92,29.86,10,10,10,13,2,16,0.00,3,,216
2013-9-4,94,77,60,56,52,50,72,48,23,30.05,30.00,29.94,10,10,10,24,4,28,0.00,1,,352
2013-9-5,97,77,57,56,54,52,78,50,22,30.02,29.94,29.84,10,10,10,20,3,24,0.00,0,,134
2013-9-6,94,78,61,64,56,47,78,51,23,30.04,29.95,29.88,10,10,10,35,6,43,0.08,1,Rain-Thunderstorm,202
2013-9-7,90,75,59,61,56,51,84,56,27,30.09,29.96,29.87,10,10,10,45,5,59,0.33,2,Rain-Thunderstorm,337
2013-9-8,78,68,58,64,59,54,97,76,54,30.08,29.92,29.79,15,10,5,18,5,21,0.15,6,Rain-Thunderstorm,271
2013-9-9,77,65,52,53,48,42,89,60,31,30.03,29.93,29.83,10,10,10,23,6,29,0.00,2,,306
2013-9-10,78,64,49,51,47,41,86,57,28,30.11,30.07,30.01,10,10,10,7,2,9,0.00,0,,199
2013-9-11,84,66,47,50,45,41,86,55,23,30.24,30.18,30.11,10,10,10,8,2,10,0.00,1,,337
2013-9-12,82,66,49,50,48,45,86,57,28,30.27,30.16,30.02,10,10,10,26,10,32,0.00,0,,135
2013-9-13,81,68,54,61,54,49,93,68,42,29.99,29.87,29.77,10,9,2,20,8,25,0.36,4,Rain,222
2013-9-14,69,61,52,59,58,50,97,82,66,30.13,29.96,29.78,10,7,1,22,9,28,1.49,7,Rain-Thunderstorm,308
2013-9-15,72,65,58,61,56,50,100,75,49,30.22,30.12,30.01,10,9,2,26,13,35,0.13,5,Rain,115
2013-9-16,82,65,48,59,51,47,93,64,35,29.99,29.88,29.79,10,10,10,18,2,25,0.00,0,,189
2013-9-17,89,71,53,57,51,41,93,57,21,29.80,29.71,29.58,10,10,3,30,8,43,0.12,2,Rain-Thunderstorm,285
2013-9-18,76,60,44,54,47,37,89,58,27,29.96,29.73,29.58,10,10,7,33,8,43,0.05,3,Rain-Thunderstorm,297
2013-9-19,62,51,40,41,39,37,86,64,42,30.19,30.13,29.97,10,10,10,20,8,25,0.00,3,,305
2013-9-20,74,55,35,43,37,30,92,56,20,30.16,30.00,29.81,10,10,2,12,3,21,0.00,0,,117
2013-9-21,86,62,37,46,35,27,85,49,12,29.82,29.67,29.52,10,10,10,17,5,23,0.00,0,,193
2013-9-22,70,58,46,54,43,37,77,57,37,29.57,29.52,29.47,10,10,10,20,5,23,T,1,,274
2013-9-23,69,55,41,48,41,32,89,58,27,29.93,29.78,29.57,10,10,6,24,10,30,0.13,3,Rain,317
2013-9-24,79,57,35,41,35,32,92,56,19,30.01,29.80,29.60,10,10,10,16,5,22,0.00,0,,93
2013-9-25,61,52,42,47,42,37,93,70,47,29.73,29.65,29.56,10,9,2,21,7,24,0.34,5,Rain-Thunderstorm,322
2013-9-26,48,43,37,43,39,35,100,83,65,30.05,29.89,29.68,10,10,6,24,8,30,0.61,8,Rain,307
2013-9-27,43,38,32,37,34,29,92,84,76,30.04,29.99,29.93,10,10,8,8,3,10,0.42,7,Rain,284
2013-9-28,65,49,32,39,33,27,89,60,30,29.99,29.93,29.83,10,10,10,22,6,26,0.00,2,,253
2013-9-29,71,59,46,42,36,31,61,46,31,29.80,29.67,29.59,10,10,10,22,7,30,0.00,0,,242
2013-9-30,75,57,38,49,40,35,86,59,31,29.85,29.67,29.49,10,10,10,46,8,54,T,2,Rain,267